Tiempo cada hora Cecenowo

Hoy, 20 Abril, Martes

Tiempo Temperatura Precipitaciones Viento Presión Humedad
00:00 +6°C° 0 mm 2 mps 762 mmHg 66%
01:00 +7°C° 0 mm 1 mps 762 mmHg 66%
02:00 +7°C° 0 mm 1 mps 761 mmHg 67%
03:00 +7°C° 0 mm 1 mps 761 mmHg 69%
04:00 +7°C° 0 mm 1 mps 761 mmHg 70%
05:00 +8°C° 0 mm 1 mps 761 mmHg 68%
06:00 +10°C° 0 mm 1 mps 761 mmHg 65%
07:00 +11°C° 0 mm 1 mps 761 mmHg 63%
08:00 +12°C° 0 mm 2 mps 761 mmHg 58%
09:00 +14°C° 0 mm 2 mps 761 mmHg 53%
10:00 +16°C° 0 mm 2 mps 760 mmHg 48%
11:00 +16°C° 0 mm 3 mps 760 mmHg 46%
12:00 +16°C° 0 mm 3 mps 760 mmHg 45%
13:00 +15°C° 0 mm 4 mps 760 mmHg 43%
14:00 +15°C° 0 mm 4 mps 759 mmHg 46%
15:00 +14°C° 0 mm 4 mps 759 mmHg 49%
16:00 +14°C° 0 mm 3 mps 759 mmHg 52%
17:00 +12°C° 0 mm 3 mps 759 mmHg 60%
18:00 +10°C° 0 mm 3 mps 759 mmHg 69%
19:00 +9°C° 0 mm 2 mps 759 mmHg 77%
20:00 +8°C° 0 mm 2 mps 759 mmHg 78%
21:00 +9°C° 0 mm 1 mps 759 mmHg 80%
22:00 +8°C° 0 mm 1 mps 759 mmHg 81%
23:00 +8°C° 0 mm 1 mps 758 mmHg 81%

Mañana, 21 Abril, Miércoles

Tiempo Temperatura Precipitaciones Viento Presión Humedad
00:00 +8°C° 0 mm 1 mps 758 mmHg 81%
01:00 +7°C° 0 mm 1 mps 758 mmHg 82%
02:00 +7°C° 0 mm 1 mps 758 mmHg 84%
03:00 +5°C° 0 mm 2 mps 758 mmHg 86%
04:00 +5°C° 0 mm 2 mps 757 mmHg 88%
05:00 +6°C° 0 mm 2 mps 757 mmHg 81%
06:00 +7°C° 0 mm 3 mps 757 mmHg 73%
07:00 +9°C° 0 mm 3 mps 757 mmHg 66%
08:00 +10°C° 0 mm 4 mps 757 mmHg 61%
09:00 +12°C° 0 mm 4 mps 757 mmHg 56%
10:00 +13°C° 0 mm 5 mps 756 mmHg 51%
11:00 +14°C° 0 mm 5 mps 756 mmHg 49%
12:00 +14°C° 0 mm 6 mps 756 mmHg 47%
13:00 +14°C° 0 mm 6 mps 756 mmHg 45%
14:00 +12°C° 0 mm 7 mps 756 mmHg 51%
15:00 +11°C° 0 mm 7 mps 756 mmHg 56%
16:00 +10°C° 0 mm 7 mps 755 mmHg 62%
17:00 +9°C° 0 mm 7 mps 755 mmHg 64%
18:00 +8°C° 0 mm 7 mps 755 mmHg 66%
19:00 +5°C° 0 mm 6 mps 755 mmHg 68%
20:00 +5°C° 0 mm 6 mps 755 mmHg 69%
21:00 +4°C° 0 mm 7 mps 755 mmHg 71%
22:00 +3°C° 0 mm 7 mps 755 mmHg 72%
23:00 +3°C° 0 mm 7 mps 755 mmHg 71%

Pasado mañana, 22 Abril, Jueves

Tiempo Temperatura Precipitaciones Viento Presión Humedad
00:00 +2°C° 0 mm 8 mps 754 mmHg 71%
01:00 +1°C° 0 mm 9 mps 754 mmHg 70%
02:00 +1°C° 0.1 mm 9 mps 754 mmHg 75%
03:00 +1°C° 0.1 mm 10 mps 754 mmHg 81%
04:00 +1°C° 0.1 mm 10 mps 754 mmHg 86%
05:00 +2°C° 0.1 mm 10 mps 754 mmHg 82%
06:00 +2°C° 0.1 mm 11 mps 754 mmHg 78%
07:00 +3°C° 0.1 mm 11 mps 754 mmHg 73%
08:00 +3°C° 0 mm 11 mps 754 mmHg 66%
09:00 +3°C° 0 mm 10 mps 755 mmHg 58%
10:00 +5°C° 0 mm 10 mps 755 mmHg 50%
11:00 +5°C° 0 mm 10 mps 756 mmHg 49%
12:00 +5°C° 0 mm 9 mps 756 mmHg 47%
13:00 +5°C° 0 mm 9 mps 756 mmHg 46%
14:00 +5°C° 0 mm 9 mps 756 mmHg 47%
15:00 +5°C° 0 mm 9 mps 757 mmHg 48%
16:00 +4°C° 0 mm 8 mps 757 mmHg 49%
17:00 +4°C° 0 mm 8 mps 757 mmHg 52%
18:00 +3°C° 0 mm 7 mps 757 mmHg 54%
19:00 +3°C° 0 mm 7 mps 758 mmHg 56%
20:00 +3°C° 0 mm 7 mps 758 mmHg 58%
21:00 +3°C° 0 mm 7 mps 758 mmHg 60%
22:00 +3°C° 0 mm 6 mps 758 mmHg 61%
23:00 +3°C° 0 mm 7 mps 758 mmHg 64%

23 Abril, Viernes

Tiempo Temperatura Precipitaciones Viento Presión Humedad
00:00 +3°C° 0 mm 7 mps 758 mmHg 66%
01:00 +1°C° 0 mm 8 mps 758 mmHg 68%
02:00 +1°C° 0 mm 8 mps 758 mmHg 67%
03:00 +2°C° 0 mm 7 mps 758 mmHg 65%
04:00 +2°C° 0 mm 7 mps 758 mmHg 64%
05:00 +2°C° 0.1 mm 7 mps 759 mmHg 63%
06:00 +2°C° 0.1 mm 7 mps 759 mmHg 63%
07:00 +2°C° 0.1 mm 7 mps 759 mmHg 62%
08:00 +3°C° 0 mm 7 mps 760 mmHg 56%
09:00 +4°C° 0 mm 7 mps 760 mmHg 51%
10:00 +4°C° 0 mm 7 mps 760 mmHg 45%
11:00 +4°C° 0 mm 7 mps 761 mmHg 45%
12:00 +5°C° 0 mm 7 mps 761 mmHg 45%
13:00 +5°C° 0 mm 7 mps 761 mmHg 45%
14:00 +5°C° 0 mm 7 mps 762 mmHg 43%
15:00 +5°C° 0 mm 7 mps 762 mmHg 41%
16:00 +5°C° 0 mm 7 mps 762 mmHg 39%
17:00 +4°C° 0 mm 7 mps 762 mmHg 43%
18:00 +4°C° 0 mm 6 mps 762 mmHg 48%
19:00 +3°C° 0 mm 6 mps 762 mmHg 52%
20:00 +3°C° 0 mm 7 mps 762 mmHg 55%
21:00 +3°C° 0 mm 7 mps 762 mmHg 59%
22:00 +3°C° 0 mm 7 mps 762 mmHg 62%
23:00 +3°C° 0 mm 7 mps 762 mmHg 63%

24 Abril, Sábado

Tiempo Temperatura Precipitaciones Viento Presión Humedad
00:00 +2°C° 0 mm 7 mps 762 mmHg 65%
01:00 +2°C° 0 mm 6 mps 762 mmHg 66%
02:00 +2°C° 0 mm 6 mps 762 mmHg 68%
03:00 +2°C° 0 mm 6 mps 762 mmHg 70%
04:00 +1°C° 0 mm 6 mps 762 mmHg 72%
05:00 +2°C° 0 mm 6 mps 762 mmHg 68%
06:00 +3°C° 0 mm 6 mps 762 mmHg 64%
07:00 +4°C° 0 mm 6 mps 762 mmHg 60%
08:00 +4°C° 0 mm 7 mps 762 mmHg 53%
09:00 +5°C° 0 mm 7 mps 762 mmHg 46%
10:00 +6°C° 0 mm 7 mps 762 mmHg 40%
11:00 +6°C° 0 mm 7 mps 762 mmHg 40%
12:00 +5°C° 0 mm 7 mps 762 mmHg 39%
13:00 +5°C° 0 mm 7 mps 763 mmHg 39%
14:00 +5°C° 0 mm 6 mps 762 mmHg 38%
15:00 +5°C° 0 mm 6 mps 762 mmHg 36%
16:00 +5°C° 0 mm 6 mps 762 mmHg 34%
17:00 +5°C° 0 mm 5 mps 762 mmHg 41%
18:00 +3°C° 0 mm 5 mps 762 mmHg 49%
19:00 +3°C° 0 mm 4 mps 762 mmHg 56%
20:00 +3°C° 0 mm 4 mps 762 mmHg 61%
21:00 +3°C° 0 mm 3 mps 762 mmHg 65%
22:00 +2°C° 0 mm 3 mps 762 mmHg 70%
23:00 +2°C° 0 mm 3 mps 761 mmHg 70%

25 Abril, Domingo

Tiempo Temperatura Precipitaciones Viento Presión Humedad
00:00 +1°C° 0 mm 4 mps 761 mmHg 71%
01:00 +1°C° 0 mm 5 mps 761 mmHg 71%
02:00 +1°C° 0 mm 5 mps 761 mmHg 71%
03:00 +1°C° 0 mm 6 mps 761 mmHg 71%
04:00 +1°C° 0 mm 6 mps 761 mmHg 71%
05:00 +1°C° 0 mm 6 mps 761 mmHg 68%
06:00 +2°C° 0 mm 7 mps 761 mmHg 64%
07:00 +3°C° 0 mm 7 mps 761 mmHg 60%
08:00 +3°C° 0 mm 7 mps 761 mmHg 60%
09:00 +3°C° 0 mm 7 mps 762 mmHg 59%
10:00 +4°C° 0 mm 6 mps 762 mmHg 59%
11:00 +3°C° 0.1 mm 6 mps 762 mmHg 62%
12:00 +3°C° 0.1 mm 6 mps 762 mmHg 66%
13:00 +3°C° 0.1 mm 5 mps 762 mmHg 69%
14:00 +3°C° 0.1 mm 5 mps 762 mmHg 67%
15:00 +3°C° 0.1 mm 5 mps 762 mmHg 65%
16:00 +3°C° 0.1 mm 5 mps 762 mmHg 63%
17:00 +4°C° 0 mm 4 mps 762 mmHg 66%
18:00 +3°C° 0 mm 4 mps 762 mmHg 68%
19:00 +3°C° 0 mm 3 mps 762 mmHg 70%
20:00 +2°C° 0 mm 3 mps 761 mmHg 73%
21:00 +1°C° 0 mm 3 mps 761 mmHg 76%
22:00 +1°C° 0 mm 3 mps 761 mmHg 78%
23:00 +2°C° 0 mm 2 mps 761 mmHg 77%
Mostrar más

Necesitamos Su Consentimiento

Meteoprog y nuestros Proveedores de Servicios pueden almacenar y acceder a sus datos personales como cookies, identificadores de dispositivo u otras tecnologías similares de su dispositivo y procesar dichos datos para personalizar contenido y anuncios, además de ofrecer funciones de redes sociales y analizar el tráfico.

  • Almacenar y/o acceder a información en su dispositivo

    Se puede almacenar o acceder a cookies, identificadores de dispositivo u otra información de su dispositivo para los fines anteriormente indicados.

  • Anuncios y contenido personalizados, medición de anuncios y contenido, percepciones del público, y desarrollo de productos

    Los anuncios y el contenido pueden personalizarse en base a su perfil. Se pueden añadir más datos para personalizar mejor los anuncios y contenidos. Se puede medir el rendimiento de los anuncios y contenidos. Se puede obtener la percepción sobre el público que ha visto los anuncios y contenidos. Dichos datos pueden usarse para desarrollar o mejorar la experiencia del usuario, sistemas y software.

Al hacer clic en ‘Estoy De Acuerdo’ usted permitirá el uso de las cookies, identificadores de dispositivo, balizas web u otras tecnologías similares indicadas. Su configuración puede cambiarse desde el navegador de su dispositivo.

Para ciertos fines, los intereses legítimos pueden ser considerados por encima del consentimiento. Puede leer más sobre ello en nuestra Política de Privacidad y Cookies.